FFT4196 KMIA-KLGA

Flight info

Callsign FFT4196
Flight time 2h 22m
Altitude 38000
Route FOLZZ3 ALYRA GRUBR/N0452F390 Y299 SEELO GARIC Q107 HURTS PROUD2
Aircraft A20N/M-SDE2E3FGHIRWXY/LB1

Departure

Time 2026-05-08 00:32
Airport Miami International Airport (KMIA)

Arrival

Time 2026-05-08 02:54
Airport LaGuardia Airport (KLGA)
Time Latitude Longitude Altitude Speed Heading
2026-05-07 23:50 25.79318 -80.28121 21 ft 0 kts 167°
2026-05-08 00:18 25.79340 -80.28127 22 ft 4 kts 167°
2026-05-08 00:18 25.79360 -80.28132 24 ft 4 kts 179°
2026-05-08 00:19 25.79383 -80.28124 22 ft 4 kts 238°
2026-05-08 00:19 25.79393 -80.28101 22 ft 2 kts 246°
2026-05-08 00:19 25.79394 -80.28099 22 ft 0 kts 246°
2026-05-08 00:24 25.79393 -80.28101 21 ft 1 kts 246°
2026-05-08 00:24 25.79384 -80.28123 23 ft 5 kts 246°
2026-05-08 00:24 25.79367 -80.28172 20 ft 9 kts 257°
2026-05-08 00:24 25.79365 -80.28197 20 ft 3 kts 267°
2026-05-08 00:25 25.79359 -80.28233 22 ft 7 kts 251°
2026-05-08 00:25 25.79333 -80.28279 19 ft 0 kts 219°
2026-05-08 00:25 25.79332 -80.28279 19 ft 0 kts 219°
2026-05-08 00:27 25.79317 -80.28293 20 ft 5 kts 220°
2026-05-08 00:27 25.79280 -80.28329 19 ft 9 kts 221°
2026-05-08 00:28 25.79232 -80.28383 20 ft 11 kts 236°
2026-05-08 00:28 25.79253 -80.28471 18 ft 14 kts 300°
2026-05-08 00:28 25.79309 -80.28582 17 ft 18 kts 298°
2026-05-08 00:28 25.79379 -80.28720 14 ft 19 kts 300°
2026-05-08 00:29 25.79437 -80.28834 15 ft 18 kts 299°
2026-05-08 00:29 25.79501 -80.28958 16 ft 20 kts 300°
2026-05-08 00:29 25.79574 -80.29101 18 ft 22 kts 300°
2026-05-08 00:29 25.79648 -80.29245 19 ft 19 kts 300°
2026-05-08 00:30 25.79719 -80.29382 17 ft 22 kts 298°
2026-05-08 00:30 25.79782 -80.29508 17 ft 17 kts 300°
2026-05-08 00:30 25.79850 -80.29642 13 ft 22 kts 300°
2026-05-08 00:30 25.79916 -80.29785 13 ft 19 kts 294°
2026-05-08 00:31 25.79970 -80.29935 11 ft 23 kts 286°
2026-05-08 00:31 25.80012 -80.30092 14 ft 13 kts 293°
2026-05-08 00:31 25.80070 -80.30123 15 ft 6 kts 45°
2026-05-08 00:31 25.80074 -80.30057 13 ft 12 kts 89°
2026-05-08 00:32 25.80084 -80.29798 13 ft 65 kts 86°
2026-05-08 00:32 25.80116 -80.29074 21 ft 120 kts 87°
2026-05-08 00:32 25.80165 -80.27979 95 ft 156 kts 89°
2026-05-08 00:32 25.80255 -80.26770 671 ft 159 kts 89°
2026-05-08 00:33 25.80270 -80.25494 1099 ft 167 kts 103°
2026-05-08 00:33 25.79903 -80.24278 1622 ft 168 kts 121°
2026-05-08 00:33 25.79324 -80.23048 1836 ft 190 kts 122°
2026-05-08 00:33 25.78660 -80.21690 2124 ft 212 kts 122°
2026-05-08 00:34 25.77872 -80.20164 2375 ft 243 kts 122°
2026-05-08 00:34 25.76947 -80.18474 2851 ft 265 kts 123°
2026-05-08 00:34 25.75985 -80.16668 3552 ft 275 kts 119°
2026-05-08 00:34 25.75090 -80.14795 4526 ft 275 kts 117°
2026-05-08 00:35 25.74326 -80.12869 5421 ft 278 kts 100°
2026-05-08 00:35 25.74334 -80.10741 6246 ft 278 kts 73°
2026-05-08 00:35 25.75210 -80.08852 7124 ft 276 kts 50°
2026-05-08 00:35 25.76486 -80.07202 7841 ft 284 kts 49°
2026-05-08 00:36 25.77795 -80.05540 8623 ft 288 kts 49°
2026-05-08 00:36 25.79123 -80.03858 9402 ft 291 kts 49°
2026-05-08 00:36 25.80461 -80.02165 10163 ft 295 kts 49°
2026-05-08 00:36 25.81859 -80.00394 10455 ft 316 kts 49°
2026-05-08 00:37 25.83358 -79.98492 10656 ft 338 kts 49°
2026-05-08 00:37 25.84400 -79.97168 10888 ft 347 kts 49°
2026-05-08 00:37 25.86523 -79.94472 11751 ft 353 kts 48°
2026-05-08 00:38 25.89791 -79.90315 13063 ft 362 kts 48°
2026-05-08 00:38 25.91455 -79.88197 13680 ft 368 kts 48°
2026-05-08 00:38 25.92603 -79.86735 14049 ft 372 kts 48°
2026-05-08 00:38 25.94282 -79.84596 14728 ft 372 kts 47°
2026-05-08 00:39 25.95996 -79.82414 15315 ft 376 kts 47°
2026-05-08 00:39 25.97723 -79.80214 15928 ft 379 kts 47°
2026-05-08 00:39 25.99464 -79.77993 16553 ft 381 kts 47°
2026-05-08 00:39 26.01214 -79.75759 17127 ft 385 kts 47°
2026-05-08 00:40 26.02983 -79.73500 17693 ft 389 kts 46°
2026-05-08 00:40 26.04774 -79.71212 18253 ft 393 kts 46°
2026-05-08 00:40 26.06579 -79.68906 18746 ft 397 kts 46°
2026-05-08 00:40 26.08399 -79.66579 19215 ft 401 kts 46°
2026-05-08 00:41 26.10236 -79.64220 19673 ft 405 kts 47°
2026-05-08 00:41 26.11908 -79.61710 20127 ft 411 kts 52°
2026-05-08 00:41 26.13559 -79.59096 20575 ft 415 kts 52°
2026-05-08 00:41 26.15234 -79.56458 21039 ft 419 kts 52°
2026-05-08 00:42 26.16929 -79.53793 21487 ft 423 kts 51°
2026-05-08 00:42 26.18634 -79.51107 21927 ft 427 kts 51°
2026-05-08 00:42 26.20366 -79.48379 22291 ft 433 kts 51°
2026-05-08 00:42 26.22111 -79.45626 22773 ft 436 kts 51°
2026-05-08 00:43 26.23849 -79.42883 23184 ft 440 kts 51°
2026-05-08 00:43 26.25622 -79.40082 23640 ft 443 kts 51°
2026-05-08 00:43 26.27454 -79.37313 24019 ft 443 kts 46°
2026-05-08 00:43 26.29574 -79.34838 24414 ft 440 kts 37°
2026-05-08 00:44 26.31921 -79.32760 24793 ft 438 kts 30°
2026-05-08 00:44 26.34540 -79.30892 25174 ft 439 kts 27°
2026-05-08 00:44 26.37130 -79.29056 25553 ft 441 kts 28°
2026-05-08 00:44 26.39720 -79.27210 25919 ft 444 kts 28°
2026-05-08 00:45 26.42298 -79.25371 26282 ft 446 kts 28°
2026-05-08 00:45 26.44917 -79.23502 26638 ft 448 kts 28°
2026-05-08 00:45 26.47551 -79.21623 26989 ft 451 kts 27°
2026-05-08 00:45 26.50209 -79.19728 27306 ft 454 kts 27°
2026-05-08 00:46 26.52882 -79.17821 27655 ft 456 kts 27°
2026-05-08 00:46 26.55559 -79.15908 27994 ft 458 kts 27°
2026-05-08 00:46 26.58254 -79.13982 28317 ft 461 kts 28°
2026-05-08 00:46 26.60961 -79.12045 28640 ft 463 kts 28°
2026-05-08 00:47 26.63679 -79.10100 28960 ft 465 kts 28°
2026-05-08 00:47 26.66413 -79.08142 29269 ft 467 kts 28°
2026-05-08 00:47 26.69158 -79.06174 29570 ft 469 kts 28°
2026-05-08 00:47 26.71875 -79.04226 29919 ft 471 kts 28°
2026-05-08 00:48 26.74640 -79.02241 30211 ft 473 kts 28°
2026-05-08 00:48 26.77415 -79.00249 30426 ft 476 kts 28°
2026-05-08 00:48 26.80209 -78.98243 30705 ft 478 kts 28°
2026-05-08 00:48 26.83018 -78.96223 30987 ft 480 kts 28°
2026-05-08 00:49 26.85833 -78.94198 31307 ft 480 kts 28°
2026-05-08 00:49 26.88644 -78.92175 31679 ft 480 kts 28°
2026-05-08 00:49 26.91451 -78.90152 32057 ft 479 kts 28°
2026-05-08 00:49 26.94256 -78.88131 32421 ft 478 kts 28°
2026-05-08 00:50 26.97013 -78.86143 32761 ft 477 kts 28°
2026-05-08 00:50 26.99808 -78.84126 33119 ft 476 kts 28°
2026-05-08 00:50 27.02592 -78.82117 33457 ft 476 kts 28°
2026-05-08 00:50 27.05381 -78.80103 33720 ft 477 kts 28°
2026-05-08 00:51 27.08171 -78.78087 34019 ft 477 kts 28°
2026-05-08 00:51 27.10959 -78.76071 34311 ft 476 kts 28°
2026-05-08 00:51 27.13738 -78.74060 34587 ft 475 kts 28°
2026-05-08 00:51 27.16513 -78.72051 34852 ft 474 kts 28°
2026-05-08 00:52 27.19281 -78.70046 35108 ft 473 kts 28°
2026-05-08 00:52 27.22046 -78.68042 35374 ft 472 kts 28°
2026-05-08 00:52 27.24806 -78.66064 35664 ft 468 kts 25°
2026-05-08 00:52 27.27699 -78.64437 35902 ft 462 kts 17°
2026-05-08 00:53 27.30726 -78.63296 36114 ft 456 kts
2026-05-08 00:53 27.33825 -78.62634 36323 ft 450 kts
2026-05-08 00:53 27.36933 -78.62248 36529 ft 450 kts
2026-05-08 00:53 27.40046 -78.61847 36746 ft 449 kts
2026-05-08 00:54 27.43151 -78.61441 36952 ft 449 kts
2026-05-08 00:54 27.46256 -78.61035 37154 ft 448 kts
2026-05-08 00:54 27.49351 -78.60631 37350 ft 448 kts
2026-05-08 00:54 27.52442 -78.60229 37535 ft 447 kts
2026-05-08 00:55 27.55540 -78.59826 37720 ft 447 kts
2026-05-08 00:55 27.58630 -78.59424 37897 ft 446 kts
2026-05-08 00:55 27.61713 -78.59022 38092 ft 446 kts
2026-05-08 00:55 27.64794 -78.58621 38273 ft 445 kts
2026-05-08 00:56 27.67865 -78.58222 38432 ft 445 kts
2026-05-08 00:56 27.70940 -78.57822 38583 ft 444 kts
2026-05-08 00:56 27.74010 -78.57422 38718 ft 444 kts
2026-05-08 00:56 27.77042 -78.57027 38835 ft 444 kts
2026-05-08 00:57 27.80108 -78.56627 38953 ft 443 kts
2026-05-08 00:57 27.86248 -78.55825 39016 ft 443 kts
2026-05-08 00:58 27.92370 -78.55023 39023 ft 442 kts
2026-05-08 00:58 27.98484 -78.54223 39022 ft 442 kts
2026-05-08 00:59 28.04558 -78.53428 39021 ft 442 kts
2026-05-08 00:59 28.10677 -78.52625 39016 ft 442 kts
2026-05-08 01:00 28.16788 -78.51822 39013 ft 442 kts
2026-05-08 01:00 28.22898 -78.51015 39024 ft 442 kts
2026-05-08 01:01 28.29009 -78.50211 39024 ft 442 kts
2026-05-08 01:01 28.35128 -78.49406 39015 ft 442 kts
2026-05-08 01:02 28.41242 -78.48599 39012 ft 442 kts
2026-05-08 01:02 28.47308 -78.47797 39027 ft 442 kts 360°
2026-05-08 01:03 28.53417 -78.46988 39012 ft 442 kts 360°
2026-05-08 01:03 28.59536 -78.46179 39011 ft 442 kts 360°
2026-05-08 01:04 28.65647 -78.45369 39003 ft 442 kts 360°
2026-05-08 01:04 28.71755 -78.44558 39003 ft 441 kts 360°
2026-05-08 01:05 28.77857 -78.43746 39005 ft 442 kts 359°
2026-05-08 01:05 28.83929 -78.42939 39004 ft 442 kts 359°
2026-05-08 01:06 28.90051 -78.42124 39000 ft 442 kts 359°
2026-05-08 01:06 28.96158 -78.41310 39000 ft 442 kts 359°
2026-05-08 01:07 29.02272 -78.40494 38994 ft 442 kts 359°
2026-05-08 01:07 29.08390 -78.39674 38990 ft 443 kts 359°
2026-05-08 01:08 29.14523 -78.38854 38992 ft 443 kts 359°
2026-05-08 01:08 29.20653 -78.38033 38989 ft 444 kts 359°
2026-05-08 01:09 29.26789 -78.37210 38991 ft 444 kts 359°
2026-05-08 01:09 29.32885 -78.36391 39000 ft 445 kts 359°
2026-05-08 01:10 29.39051 -78.35562 38990 ft 445 kts 359°
2026-05-08 01:10 29.45198 -78.34906 38989 ft 439 kts 353°
2026-05-08 01:11 29.51217 -78.35390 38990 ft 429 kts 343°
2026-05-08 01:11 29.56956 -78.36983 38989 ft 422 kts 337°
2026-05-08 01:12 29.62623 -78.38815 38986 ft 421 kts 336°
2026-05-08 01:12 29.68257 -78.40635 38986 ft 420 kts 336°
2026-05-08 01:13 29.73849 -78.42457 38982 ft 421 kts 336°
2026-05-08 01:13 29.79481 -78.44294 38982 ft 420 kts 336°
2026-05-08 01:14 29.85110 -78.46132 38982 ft 420 kts 336°
2026-05-08 01:14 29.90736 -78.47970 38989 ft 419 kts 336°
2026-05-08 01:15 29.96312 -78.49792 38979 ft 416 kts 336°
2026-05-08 01:15 30.01898 -78.51626 38980 ft 417 kts 336°
2026-05-08 01:16 30.07484 -78.53459 38983 ft 417 kts 336°
2026-05-08 01:16 30.13194 -78.54919 38977 ft 426 kts 344°
2026-05-08 01:17 30.19200 -78.55193 38977 ft 438 kts 354°
2026-05-08 01:17 30.25332 -78.54407 38974 ft 444 kts 358°
2026-05-08 01:18 30.31424 -78.53547 38978 ft 444 kts 358°
2026-05-08 01:18 30.37556 -78.52675 38978 ft 444 kts 358°
2026-05-08 01:19 30.43696 -78.51790 38981 ft 445 kts 358°
2026-05-08 01:19 30.49849 -78.50792 38983 ft 446 kts 359°
2026-05-08 01:20 30.56002 -78.49778 38984 ft 446 kts 359°
2026-05-08 01:20 30.62155 -78.48776 38984 ft 446 kts 359°
2026-05-08 01:21 30.68307 -78.47778 38982 ft 446 kts 359°
2026-05-08 01:21 30.74416 -78.46784 38999 ft 446 kts 358°
2026-05-08 01:22 30.80570 -78.45782 38980 ft 446 kts 358°
2026-05-08 01:22 30.86728 -78.44779 38979 ft 446 kts 358°
2026-05-08 01:23 30.92870 -78.43777 38977 ft 446 kts 358°
2026-05-08 01:23 30.99021 -78.42772 38975 ft 445 kts 358°
2026-05-08 01:24 31.05126 -78.41773 38965 ft 445 kts 358°
2026-05-08 01:24 31.11265 -78.40768 38957 ft 445 kts 358°
2026-05-08 01:25 31.17400 -78.39762 38959 ft 445 kts 358°
2026-05-08 01:25 31.22501 -78.38924 38961 ft 445 kts 358°
2026-05-08 01:26 31.28634 -78.37916 38972 ft 445 kts 357°
2026-05-08 01:26 31.34781 -78.36904 38960 ft 446 kts 357°
2026-05-08 01:27 31.40919 -78.35892 38959 ft 446 kts 357°
2026-05-08 01:27 31.47061 -78.34879 38955 ft 446 kts 357°
2026-05-08 01:28 31.53207 -78.33863 38958 ft 446 kts 357°
2026-05-08 01:28 31.59371 -78.32842 38950 ft 447 kts 356°
2026-05-08 01:29 31.65501 -78.31827 38947 ft 448 kts 356°
2026-05-08 01:29 31.71670 -78.30804 38953 ft 448 kts 356°
2026-05-08 01:30 31.77853 -78.29776 38951 ft 449 kts 356°
2026-05-08 01:30 31.84042 -78.28746 38948 ft 450 kts 356°
2026-05-08 01:31 31.90243 -78.27713 38947 ft 450 kts 356°
2026-05-08 01:31 31.96465 -78.26675 38957 ft 451 kts 356°
2026-05-08 01:32 32.02686 -78.25636 38944 ft 451 kts 356°
2026-05-08 01:32 32.08864 -78.24709 38948 ft 451 kts 354°
2026-05-08 01:33 32.15105 -78.23824 38938 ft 452 kts 355°
2026-05-08 01:33 32.21357 -78.22920 38935 ft 452 kts 355°
2026-05-08 01:34 32.27613 -78.22005 38937 ft 453 kts 355°
2026-05-08 01:34 32.33872 -78.21088 38975 ft 453 kts 354°
2026-05-08 01:35 32.40137 -78.20166 38925 ft 452 kts 354°
2026-05-08 01:35 32.46378 -78.19249 38925 ft 452 kts 354°
2026-05-08 01:36 32.52623 -78.18332 38919 ft 452 kts 354°
2026-05-08 01:36 32.58866 -78.17413 38919 ft 452 kts 354°
2026-05-08 01:37 32.65089 -78.16488 38908 ft 448 kts 353°
2026-05-08 01:37 32.71249 -78.15581 38905 ft 450 kts 353°
2026-05-08 01:38 32.77462 -78.14665 38912 ft 449 kts 353°
2026-05-08 01:38 32.83675 -78.13745 38903 ft 449 kts 353°
2026-05-08 01:39 32.89885 -78.12824 38905 ft 449 kts 353°
2026-05-08 01:39 32.96056 -78.11907 38903 ft 449 kts 353°
2026-05-08 01:40 33.02264 -78.10984 38902 ft 449 kts 353°
2026-05-08 01:40 33.08478 -78.10058 38904 ft 449 kts 353°
2026-05-08 01:41 33.14693 -78.09130 38898 ft 448 kts 353°
2026-05-08 01:41 33.20865 -78.08207 38892 ft 447 kts 352°
2026-05-08 01:42 33.27007 -78.07292 38887 ft 448 kts 353°
2026-05-08 01:42 33.33195 -78.06365 38879 ft 447 kts 353°
2026-05-08 01:43 33.39379 -78.05437 38886 ft 448 kts 352°
2026-05-08 01:43 33.45551 -78.04509 38865 ft 446 kts 352°
2026-05-08 01:44 33.51676 -78.03587 38857 ft 445 kts 352°
2026-05-08 01:44 33.57821 -78.02662 38845 ft 444 kts 352°
2026-05-08 01:45 33.63952 -78.01738 38879 ft 444 kts 352°
2026-05-08 01:45 33.70089 -78.00813 38844 ft 444 kts 352°
2026-05-08 01:46 33.76224 -77.99884 38841 ft 444 kts 352°
2026-05-08 01:46 33.82363 -77.98955 38845 ft 444 kts 352°
2026-05-08 01:47 33.88504 -77.98024 38851 ft 445 kts 352°
2026-05-08 01:47 33.94620 -77.97073 38854 ft 446 kts 352°
2026-05-08 01:48 34.03870 -77.95620 38854 ft 447 kts 352°
2026-05-08 01:48 34.10051 -77.94652 38883 ft 448 kts 352°
2026-05-08 01:49 34.16243 -77.93681 38896 ft 450 kts 352°
2026-05-08 01:49 34.22457 -77.92705 38904 ft 450 kts 352°
2026-05-08 01:50 34.28678 -77.91725 38908 ft 451 kts 352°
2026-05-08 01:50 34.34889 -77.90742 38897 ft 449 kts 352°
2026-05-08 01:51 34.41093 -77.89764 38900 ft 451 kts 352°
2026-05-08 01:51 34.47280 -77.88788 38896 ft 451 kts 352°
2026-05-08 01:52 34.53507 -77.87801 38905 ft 451 kts 352°
2026-05-08 01:52 34.59729 -77.86814 38914 ft 451 kts 352°
2026-05-08 01:53 34.65960 -77.85825 38916 ft 453 kts 352°
2026-05-08 01:53 34.72207 -77.84832 38913 ft 453 kts 352°
2026-05-08 01:54 34.78463 -77.83835 38912 ft 454 kts 352°
2026-05-08 01:54 34.84737 -77.82830 38917 ft 456 kts 353°
2026-05-08 01:55 34.87886 -77.82102 38922 ft 467 kts 359°
2026-05-08 01:55 34.91054 -77.81056 38911 ft 474 kts
2026-05-08 01:55 34.97401 -77.78906 38913 ft 473 kts
2026-05-08 01:56 35.03749 -77.76765 38919 ft 474 kts
2026-05-08 01:56 35.10113 -77.74611 38925 ft 474 kts
2026-05-08 01:57 35.16462 -77.72451 38947 ft 468 kts
2026-05-08 01:57 35.22661 -77.70338 38949 ft 465 kts
2026-05-08 01:58 35.28930 -77.68215 38953 ft 467 kts
2026-05-08 01:58 35.35145 -77.66095 38952 ft 466 kts
2026-05-08 01:59 35.41397 -77.63960 38952 ft 466 kts
2026-05-08 01:59 35.47655 -77.61819 38949 ft 466 kts
2026-05-08 02:00 35.53907 -77.59676 38952 ft 466 kts
2026-05-08 02:00 35.60176 -77.57526 38977 ft 470 kts
2026-05-08 02:01 35.66409 -77.55369 38958 ft 460 kts 360°
2026-05-08 02:01 35.72573 -77.53257 38957 ft 464 kts 360°
2026-05-08 02:02 35.78792 -77.51177 38952 ft 461 kts 359°
2026-05-08 02:02 35.84999 -77.49176 38992 ft 461 kts 358°
2026-05-08 02:03 35.91221 -77.47156 38966 ft 462 kts 358°
2026-05-08 02:03 35.97443 -77.45122 38962 ft 462 kts 358°
2026-05-08 02:04 36.03662 -77.43086 38954 ft 462 kts 358°
2026-05-08 02:04 36.09876 -77.41047 38968 ft 463 kts 358°
2026-05-08 02:05 36.16077 -77.39011 38945 ft 464 kts 358°
2026-05-08 02:05 36.22307 -77.36960 38955 ft 463 kts 358°
2026-05-08 02:06 36.28558 -77.34899 38962 ft 463 kts 358°
2026-05-08 02:06 36.34794 -77.32841 38968 ft 465 kts 358°
2026-05-08 02:07 36.41048 -77.30773 38963 ft 465 kts 358°
2026-05-08 02:07 36.47307 -77.28700 38959 ft 465 kts 358°
2026-05-08 02:08 36.53522 -77.26638 38952 ft 465 kts 358°
2026-05-08 02:08 36.59802 -77.24553 38967 ft 467 kts 358°
2026-05-08 02:09 36.66090 -77.22459 38957 ft 467 kts 358°
2026-05-08 02:09 36.72376 -77.20363 38968 ft 467 kts 358°
2026-05-08 02:10 36.78658 -77.18265 39005 ft 468 kts 359°
2026-05-08 02:10 36.84959 -77.16160 38968 ft 469 kts 359°
2026-05-08 02:11 36.91223 -77.14059 38975 ft 469 kts 359°
2026-05-08 02:11 36.97528 -77.11943 38978 ft 469 kts 359°
2026-05-08 02:12 37.03840 -77.09823 38978 ft 470 kts 359°
2026-05-08 02:12 37.10158 -77.07695 38973 ft 470 kts 359°
2026-05-08 02:13 37.16478 -77.05562 38968 ft 470 kts 359°
2026-05-08 02:13 37.21722 -77.03789 38962 ft 469 kts 359°
2026-05-08 02:14 37.29066 -77.01308 38947 ft 470 kts 359°
2026-05-08 02:14 37.35387 -76.99163 38948 ft 470 kts 359°
2026-05-08 02:15 37.40676 -76.97365 38948 ft 470 kts 359°
2026-05-08 02:15 37.46930 -76.94795 39002 ft 487 kts
2026-05-08 02:16 37.50026 -76.92949 38945 ft 499 kts 15°
2026-05-08 02:16 37.53092 -76.90887 38938 ft 499 kts 14°
2026-05-08 02:16 37.59230 -76.86814 38957 ft 498 kts 14°
2026-05-08 02:17 37.65359 -76.82743 38952 ft 498 kts 14°
2026-05-08 02:17 37.71496 -76.78650 38946 ft 498 kts 14°
2026-05-08 02:18 37.77627 -76.74551 38939 ft 499 kts 14°
2026-05-08 02:18 37.83762 -76.70441 38934 ft 499 kts 14°
2026-05-08 02:19 37.89903 -76.66355 38975 ft 497 kts 14°
2026-05-08 02:19 37.96100 -76.62459 38935 ft 497 kts 13°
2026-05-08 02:20 38.02299 -76.58558 38944 ft 498 kts 13°
2026-05-08 02:20 38.08464 -76.54646 38947 ft 498 kts 14°
2026-05-08 02:21 38.14667 -76.50701 38949 ft 499 kts 14°
2026-05-08 02:21 38.20870 -76.46742 38943 ft 498 kts 15°
2026-05-08 02:22 38.27059 -76.42762 38951 ft 501 kts 17°
2026-05-08 02:22 38.32958 -76.37753 38998 ft 517 kts 28°
2026-05-08 02:23 38.38641 -76.32192 38950 ft 513 kts 27°
2026-05-08 02:23 38.44325 -76.26652 38850 ft 515 kts 27°
2026-05-08 02:24 38.47175 -76.23866 38436 ft 517 kts 27°
2026-05-08 02:24 38.50030 -76.21069 37702 ft 519 kts 27°
2026-05-08 02:24 38.52909 -76.18246 36810 ft 524 kts 27°
2026-05-08 02:24 38.55777 -76.15430 35947 ft 529 kts 27°
2026-05-08 02:25 38.58707 -76.12550 35022 ft 534 kts 27°
2026-05-08 02:25 38.61644 -76.09653 34287 ft 535 kts 27°
2026-05-08 02:25 38.64597 -76.06761 33431 ft 535 kts 26°
2026-05-08 02:25 38.67591 -76.03951 32672 ft 532 kts 25°
2026-05-08 02:26 38.70590 -76.01179 31863 ft 531 kts 25°
2026-05-08 02:26 38.73592 -75.98403 31101 ft 532 kts 26°
2026-05-08 02:26 38.76569 -75.95634 30553 ft 526 kts 26°
2026-05-08 02:26 38.79517 -75.92880 29882 ft 523 kts 26°
2026-05-08 02:27 38.82433 -75.90147 29304 ft 516 kts 26°
2026-05-08 02:27 38.85314 -75.87441 28716 ft 510 kts 26°
2026-05-08 02:27 38.88159 -75.84766 28154 ft 504 kts 27°
2026-05-08 02:27 38.90972 -75.82121 27579 ft 498 kts 27°
2026-05-08 02:28 38.93752 -75.79503 27146 ft 491 kts 27°
2026-05-08 02:28 38.96502 -75.76913 26870 ft 490 kts 27°
2026-05-08 02:28 38.99251 -75.74321 26413 ft 490 kts 27°
2026-05-08 02:28 39.01987 -75.71736 26106 ft 487 kts 28°
2026-05-08 02:29 39.04718 -75.69153 25827 ft 488 kts 28°
2026-05-08 02:29 39.07451 -75.66564 25530 ft 487 kts 28°
2026-05-08 02:29 39.10178 -75.63976 25261 ft 484 kts 28°
2026-05-08 02:29 39.12844 -75.61443 24989 ft 482 kts 28°
2026-05-08 02:30 39.15535 -75.58885 24699 ft 480 kts 28°
2026-05-08 02:30 39.18216 -75.56334 24435 ft 477 kts 28°
2026-05-08 02:30 39.20894 -75.53785 24154 ft 476 kts 29°
2026-05-08 02:30 39.23550 -75.51253 23957 ft 473 kts 28°
2026-05-08 02:31 39.26223 -75.48801 23767 ft 470 kts 27°
2026-05-08 02:31 39.28921 -75.46429 23217 ft 470 kts 26°
2026-05-08 02:31 39.31640 -75.44060 22481 ft 470 kts 27°
2026-05-08 02:31 39.34318 -75.41708 22160 ft 460 kts 27°
2026-05-08 02:32 39.36932 -75.39396 21749 ft 453 kts 27°
2026-05-08 02:32 39.39530 -75.37094 21341 ft 453 kts 27°
2026-05-08 02:32 39.42129 -75.34786 20939 ft 451 kts 28°
2026-05-08 02:32 39.44705 -75.32492 20542 ft 448 kts 28°
2026-05-08 02:33 39.47229 -75.30240 20151 ft 444 kts 28°
2026-05-08 02:33 39.49766 -75.27974 19760 ft 442 kts 28°
2026-05-08 02:33 39.52281 -75.25710 19370 ft 439 kts 29°
2026-05-08 02:33 39.54760 -75.23401 18949 ft 438 kts 30°
2026-05-08 02:34 39.57214 -75.21083 18585 ft 435 kts 30°
2026-05-08 02:34 39.59659 -75.18773 18209 ft 434 kts 30°
2026-05-08 02:34 39.62087 -75.16481 17790 ft 429 kts 30°
2026-05-08 02:34 39.64494 -75.14215 17458 ft 425 kts 30°
2026-05-08 02:35 39.66886 -75.11964 17168 ft 424 kts 30°
2026-05-08 02:35 39.69279 -75.09748 16969 ft 421 kts 28°
2026-05-08 02:35 39.71708 -75.07648 16788 ft 419 kts 27°
2026-05-08 02:35 39.74148 -75.05589 16579 ft 416 kts 27°
2026-05-08 02:36 39.76569 -75.03541 16389 ft 415 kts 27°
2026-05-08 02:36 39.78978 -75.01488 16065 ft 412 kts 27°
2026-05-08 02:36 39.81335 -74.99465 15553 ft 409 kts 28°
2026-05-08 02:36 39.83696 -74.97429 14914 ft 405 kts 28°
2026-05-08 02:37 39.86034 -74.95402 14148 ft 404 kts 29°
2026-05-08 02:37 39.88327 -74.93337 13719 ft 397 kts 30°
2026-05-08 02:37 39.90591 -74.91268 13504 ft 397 kts 30°
2026-05-08 02:37 39.92741 -74.89001 13179 ft 398 kts 39°
2026-05-08 02:38 39.94614 -74.86367 12812 ft 392 kts 44°
2026-05-08 02:38 39.96422 -74.83753 12468 ft 383 kts 44°
2026-05-08 02:38 39.98208 -74.81192 12134 ft 381 kts 43°
2026-05-08 02:38 39.99964 -74.78682 11823 ft 374 kts 43°
2026-05-08 02:39 40.01686 -74.76215 11683 ft 360 kts 43°
2026-05-08 02:39 40.03326 -74.73858 11495 ft 341 kts 43°
2026-05-08 02:39 40.04881 -74.71621 11193 ft 327 kts 43°
2026-05-08 02:39 40.06393 -74.69450 10721 ft 320 kts 43°
2026-05-08 02:40 40.07872 -74.67329 10297 ft 312 kts 43°
2026-05-08 02:40 40.09314 -74.65256 10056 ft 304 kts 43°
2026-05-08 02:40 40.10725 -74.63229 10004 ft 303 kts 43°
2026-05-08 02:40 40.12150 -74.61185 9999 ft 304 kts 43°
2026-05-08 02:41 40.13571 -74.59140 9998 ft 303 kts 43°
2026-05-08 02:41 40.14992 -74.57095 9998 ft 304 kts 43°
2026-05-08 02:41 40.16395 -74.55072 9836 ft 304 kts 43°
2026-05-08 02:41 40.17799 -74.53043 9628 ft 297 kts 43°
2026-05-08 02:42 40.19189 -74.51035 9387 ft 299 kts 43°
2026-05-08 02:42 40.20600 -74.49050 9150 ft 295 kts 39°
2026-05-08 02:42 40.22077 -74.47197 8907 ft 294 kts 39°
2026-05-08 02:42 40.23549 -74.45347 8675 ft 292 kts 40°
2026-05-08 02:43 40.25011 -74.43503 8439 ft 291 kts 40°
2026-05-08 02:43 40.26469 -74.41662 8178 ft 289 kts 40°
2026-05-08 02:43 40.27913 -74.39836 7914 ft 289 kts 40°
2026-05-08 02:43 40.29354 -74.38016 7676 ft 289 kts 41°
2026-05-08 02:44 40.30804 -74.36184 7436 ft 288 kts 41°
2026-05-08 02:44 40.32235 -74.34372 7217 ft 285 kts 41°
2026-05-08 02:44 40.33661 -74.32567 6997 ft 285 kts 41°
2026-05-08 02:44 40.35082 -74.30767 6766 ft 283 kts 41°
2026-05-08 02:45 40.36493 -74.28978 6537 ft 281 kts 42°
2026-05-08 02:45 40.37899 -74.27195 6318 ft 280 kts 42°
2026-05-08 02:45 40.39296 -74.25421 6076 ft 279 kts 42°
2026-05-08 02:45 40.40689 -74.23652 5841 ft 277 kts 42°
2026-05-08 02:46 40.42075 -74.21889 5609 ft 277 kts 42°
2026-05-08 02:46 40.43436 -74.20157 5381 ft 276 kts 42°
2026-05-08 02:46 40.44811 -74.18408 5146 ft 274 kts 42°
2026-05-08 02:46 40.46177 -74.16668 4923 ft 273 kts 42°
2026-05-08 02:47 40.47545 -74.14925 4699 ft 274 kts 43°
2026-05-08 02:47 40.48909 -74.13187 4464 ft 272 kts 43°
2026-05-08 02:47 40.50259 -74.11465 4229 ft 270 kts 43°
2026-05-08 02:47 40.51608 -74.09763 3994 ft 267 kts 40°
2026-05-08 02:48 40.53110 -74.08341 3771 ft 265 kts 31°
2026-05-08 02:48 40.54660 -74.07049 3534 ft 263 kts 32°
2026-05-08 02:48 40.56198 -74.05754 3308 ft 260 kts 32°
2026-05-08 02:48 40.57713 -74.04471 3082 ft 257 kts 32°
2026-05-08 02:49 40.59212 -74.03198 3019 ft 256 kts 33°
2026-05-08 02:49 40.60693 -74.01938 3019 ft 257 kts 33°
2026-05-08 02:49 40.62186 -74.00669 3018 ft 250 kts 33°
2026-05-08 02:49 40.63590 -73.99474 3015 ft 230 kts 32°
2026-05-08 02:50 40.64879 -73.98377 3004 ft 212 kts 32°
2026-05-08 02:50 40.66071 -73.97359 3008 ft 196 kts 32°
2026-05-08 02:50 40.67165 -73.96415 3013 ft 178 kts 32°
2026-05-08 02:50 40.68169 -73.95545 2839 ft 170 kts 32°
2026-05-08 02:51 40.69154 -73.94693 2631 ft 168 kts 32°
2026-05-08 02:51 40.70081 -73.93668 2589 ft 176 kts 46°
2026-05-08 02:51 40.70889 -73.92493 2458 ft 170 kts 46°
2026-05-08 02:51 40.71684 -73.91326 2114 ft 171 kts 50°
2026-05-08 02:52 40.72179 -73.89919 1995 ft 172 kts 78°
2026-05-08 02:52 40.72372 -73.88429 1859 ft 154 kts 79°
2026-05-08 02:52 40.72504 -73.87116 1654 ft 139 kts 80°
2026-05-08 02:52 40.72736 -73.85932 1363 ft 132 kts 64°
2026-05-08 02:53 40.73156 -73.84859 1193 ft 133 kts 58°
2026-05-08 02:53 40.73734 -73.83927 1040 ft 132 kts 37°
2026-05-08 02:53 40.74577 -73.83506 794 ft 133 kts
2026-05-08 02:53 40.75471 -73.83730 572 ft 127 kts 342°
2026-05-08 02:54 40.76311 -73.84208 359 ft 132 kts 325°
2026-05-08 02:54 40.76917 -73.85112 166 ft 134 kts 304°
2026-05-08 02:54 40.77406 -73.86129 17 ft 126 kts 304°
2026-05-08 02:54 40.77721 -73.86784 14 ft 41 kts 302°
2026-05-08 02:55 40.77816 -73.87086 13 ft 22 kts 277°
2026-05-08 02:55 40.77738 -73.87052 14 ft 13 kts 127°
2026-05-08 02:55 40.77698 -73.86978 13 ft 0 kts 156°
2026-05-08 02:56 40.77687 -73.86982 12 ft 2 kts 197°
2026-05-08 02:56 40.77663 -73.87002 14 ft 7 kts 206°
2026-05-08 02:56 40.77622 -73.86989 15 ft 9 kts 185°
2026-05-08 02:56 40.77568 -73.87029 19 ft 10 kts 212°
2026-05-08 02:57 40.77535 -73.87055 19 ft 12 kts 212°